TimeCST,TemperatureF,Dew PointF,Humidity,Sea Level PressureIn,VisibilityMPH,Wind Direction,Wind SpeedMPH,Gust SpeedMPH,PrecipitationIn,Events,Conditions,WindDirDegrees,DateUTC
12:53 AM,27.0,26.1,96,30.53,10.0,Calm,Calm,-,N/A,,Clear,0,2013-01-18 06:53:00
1:53 AM,26.1,25.0,96,30.52,10.0,Calm,Calm,-,N/A,,Clear,0,2013-01-18 07:53:00
2:53 AM,25.0,24.1,96,30.53,10.0,Calm,Calm,-,N/A,,Clear,0,2013-01-18 08:53:00
3:53 AM,26.1,24.1,92,30.52,10.0,Calm,Calm,-,N/A,,Clear,0,2013-01-18 09:53:00
4:53 AM,24.1,23.0,96,30.52,10.0,Calm,Calm,-,N/A,,Clear,0,2013-01-18 10:53:00
5:53 AM,24.1,21.9,91,30.52,10.0,Calm,Calm,-,N/A,,Clear,0,2013-01-18 11:53:00
6:53 AM,23.0,21.0,92,30.53,10.0,Calm,Calm,-,N/A,,Clear,0,2013-01-18 12:53:00
7:53 AM,23.0,21.0,92,30.55,10.0,Calm,Calm,-,N/A,,Clear,0,2013-01-18 13:53:00
8:53 AM,30.0,28.0,92,30.56,10.0,Calm,Calm,-,N/A,,Clear,0,2013-01-18 14:53:00
9:53 AM,37.9,33.1,83,30.55,10.0,Calm,Calm,-,N/A,,Clear,0,2013-01-18 15:53:00
10:53 AM,45.0,30.0,56,30.53,10.0,Calm,Calm,-,N/A,,Clear,0,2013-01-18 16:53:00
11:53 AM,50.0,25.0,38,30.48,10.0,SE,4.6,-,N/A,,Clear,140,2013-01-18 17:53:00
12:53 PM,51.1,27.0,39,30.45,10.0,SSW,8.1,-,N/A,,Clear,210,2013-01-18 18:53:00
1:53 PM,55.0,26.1,33,30.41,10.0,Variable,4.6,-,N/A,,Clear,0,2013-01-18 19:53:00
2:53 PM,55.0,23.0,29,30.39,10.0,Variable,5.8,-,N/A,,Clear,0,2013-01-18 20:53:00
3:53 PM,55.0,23.0,29,30.36,10.0,SSW,4.6,-,N/A,,Clear,210,2013-01-18 21:53:00
4:53 PM,53.1,21.0,29,30.37,10.0,Calm,Calm,-,N/A,,Clear,0,2013-01-18 22:53:00
5:53 PM,48.9,23.0,36,30.37,10.0,Calm,Calm,-,N/A,,Clear,0,2013-01-18 23:53:00
6:53 PM,43.0,25.0,49,30.37,10.0,Calm,Calm,-,N/A,,Clear,0,2013-01-19 00:53:00
7:53 PM,42.1,25.0,51,30.36,10.0,Calm,Calm,-,N/A,,Clear,0,2013-01-19 01:53:00
8:53 PM,36.0,26.1,67,30.35,10.0,Calm,Calm,-,N/A,,Clear,0,2013-01-19 02:53:00
9:53 PM,34.0,26.1,73,30.34,10.0,Calm,Calm,-,N/A,,Clear,0,2013-01-19 03:53:00
10:53 PM,34.0,25.0,70,30.32,10.0,Calm,Calm,-,N/A,,Clear,0,2013-01-19 04:53:00
11:53 PM,32.0,26.1,79,30.30,10.0,Calm,Calm,-,N/A,,Clear,0,2013-01-19 05:53:00